Powrót do katalogu

STARLINK-30705

AktywnyŁącznośćVLEO
NORAD 57945·PAYLOAD·🇺🇸 United States

Wystrzelony Sep 25, 2023 z Vandenberg Space Force Base

Loading…

Następne Przeloty (najbliższe 24 godziny)

TLE

ŚwieżeSource: CelesTrak SupGP

Epoka: Sep 15, 2026, 03:00 UTC

1 57945C 23148L   26258.12548611 -.00082115  00000+0 -24256-2 0  2586
2 57945  53.1577 220.8688 0001310  87.9035 333.2951 15.34438411    12

Śledź STARLINK-30705 w czasie rzeczywistym z AllMySat

Download on the App Store